Total_Precipitation_Accumulation
0.01 0.03 0.04 0.05 0.08 0.10 0.10 0.18 0.23 0.24 0.25 0.31 0.42 0.57 0.76 0.85 1.02 1.15 1.19 1.26 1.37 1.55 1.96 2.36 2.94 3.83 4.33 5.00 4.99 4.58 4.19 3.99 3.93 3.86 3.82 3.85 3.94 4.10 4.21 4.12 3.85 3.73 3.65 3.64
0.02 0.03 0.02 0.03 0.06 0.07 0.08 0.13 0.18 0.26 0.32 0.38 0.55 0.69 0.89 1.00 1.09 1.19 1.19 1.33 1.32 1.44 2.09 2.70 3.16 3.62 3.88 4.02 4.30 4.62 4.58 4.49 4.20 4.11 4.35 4.77 4.97 4.90 4.93 4.86 4.74 4.53 4.35 4.27
0.02 0.03 0.02 0.03 0.05 0.05 0.08 0.11 0.14 0.26 0.37 0.53 0.76 1.02 1.12 1.18 1.33 1.30 1.21 1.26 1.31 1.47 1.86 2.48 3.01 3.36 3.73 3.99 4.09 4.36 4.49 4.64 4.78 4.93 5.11 5.51 5.78 5.64 5.38 4.97 4.78 4.58 4.29 4.17
0.01 0.01 0.02 0.04 0.05 0.06 0.09 0.08 0.13 0.21 0.34 0.59 0.77 1.21 1.36 1.36 1.45 1.47 1.50 1.47 1.46 1.62 1.84 2.18 2.57 2.81 3.16 3.42 3.71 4.01 4.21 4.46 4.96 5.66 5.98 6.00 6.03 5.86 5.53 5.14 4.78 4.44 4.14 3.90
0.02 0.01 0.03 0.04 0.05 0.05 0.06 0.07 0.11 0.18 0.29 0.56 0.65 0.99 1.49 1.54 1.61 1.61 1.65 1.68 1.67 1.68 1.82 1.98 2.02 2.30 2.71 2.91 3.13 3.54 3.98 4.43 5.10 5.66 5.96 6.16 6.05 5.79 5.48 5.00 4.62 4.23 3.92 3.60
0.03 0.03 0.03 0.05 0.06 0.05 0.06 0.10 0.17 0.22 0.37 0.69 0.59 0.80 1.52 1.74 1.72 1.60 1.61 1.72 1.69 1.62 1.68 1.77 1.88 2.02 2.26 2.49 2.73 3.00 3.60 4.31 4.76 5.16 5.48 5.62 5.67 5.54 5.20 4.73 4.38 4.02 3.71 3.38
0.07 0.06 0.04 0.05 0.07 0.08 0.12 0.29 0.55 0.68 0.78 0.74 0.48 0.83 1.62 1.83 1.78 1.69 1.69 1.86 1.71 1.49 1.54 1.78 1.85 1.97 2.18 2.41 2.74 3.02 3.42 3.98 4.30 4.41 4.59 4.85 4.98 4.92 4.79 4.58 4.24 3.84 3.37 2.92
0.16 0.14 0.07 0.06 0.09 0.12 0.14 0.29 0.65 0.89 0.87 0.80 0.76 1.33 1.85 1.88 1.77 1.69 1.64 1.73 1.72 1.64 1.70 1.77 1.81 1.92 2.17 2.35 2.48 2.81 3.04 3.55 3.82 3.73 3.84 4.08 4.25 4.21 4.08 3.86 3.45 3.07 2.73 2.44
0.22 0.20 0.08 0.07 0.09 0.10 0.16 0.24 0.33 0.56 0.63 0.85 1.26 1.80 2.16 2.17 2.06 1.93 1.80 1.68 1.65 1.63 1.68 1.76 1.72 1.78 1.96 2.13 2.30 2.42 2.53 2.90 3.19 3.16 3.20 3.23 3.20 3.17 3.07 2.91 2.64 2.38 2.13 1.89
0.15 0.21 0.12 0.10 0.12 0.15 0.18 0.22 0.33 0.61 0.87 1.16 1.43 2.02 2.65 2.60 2.34 2.08 1.92 1.65 1.64 1.55 1.53 1.62 1.65 1.67 1.60 1.66 1.91 2.12 2.12 2.22 2.36 2.37 2.42 2.43 2.45 2.50 2.42 2.17 1.97 1.87 1.77 1.60
0.14 0.24 0.20 0.18 0.22 0.25 0.26 0.29 0.32 0.50 0.65 1.03 1.47 2.04 2.24 2.39 2.26 2.02 1.84 1.64 1.51 1.44 1.49 1.56 1.60 1.58 1.44 1.35 1.43 1.70 1.85 1.81 1.86 1.98 2.05 1.98 1.95 1.90 1.85 1.74 1.59 1.55 1.48 1.38
0.19 0.29 0.36 0.29 0.23 0.20 0.24 0.29 0.35 0.61 0.67 0.79 1.26 2.01 2.04 2.29 2.33 2.20 1.95 1.76 1.74 1.62 1.60 1.59 1.70 1.58 1.46 1.44 1.44 1.51 1.62 1.65 1.62 1.64 1.79 1.84 1.74 1.59 1.54 1.46 1.39 1.31 1.24 1.20
0.23 0.42 0.66 0.72 0.54 0.35 0.29 0.30 0.34 0.41 0.58 0.82 1.35 2.14 2.17 2.18 2.24 2.17 1.93 1.85 1.88 1.85 1.82 1.75 1.70 1.57 1.50 1.51 1.43 1.36 1.40 1.44 1.44 1.41 1.47 1.51 1.46 1.36 1.30 1.27 1.29 1.19 1.12 1.07
0.24 0.45 0.75 1.08 0.91 0.56 0.43 0.36 0.37 0.46 0.73 0.91 1.24 1.75 2.07 2.04 2.12 2.21 2.10 1.88 1.85 1.88 1.85 1.73 1.70 1.63 1.57 1.53 1.42 1.36 1.31 1.24 1.19 1.22 1.26 1.28 1.30 1.27 1.20 1.13 1.12 1.10 1.07 1.05
0.33 0.54 0.52 0.53 0.51 0.49 0.45 0.42 0.42 0.52 0.62 0.95 1.27 1.68 2.04 1.97 2.11 2.36 2.31 2.12 1.96 1.91 1.89 1.78 1.77 1.75 1.70 1.66 1.54 1.42 1.32 1.28 1.22 1.18 1.13 1.17 1.24 1.25 1.20 1.19 1.16 1.11 1.04 0.99
0.38 0.53 0.54 0.49 0.43 0.46 0.51 0.53 0.48 0.52 0.65 0.96 1.32 1.83 1.97 1.99 2.07 2.19 2.31 2.21 2.05 2.02 2.08 2.11 2.11 2.06 1.98 1.89 1.71 1.54 1.42 1.31 1.23 1.21 1.17 1.18 1.19 1.15 1.14 1.13 1.09 1.08 1.02 0.98
0.38 0.54 0.67 0.61 0.42 0.65 0.98 0.82 0.73 0.73 0.82 1.07 1.42 1.66 1.67 1.79 2.00 2.07 2.17 2.29 2.22 2.28 2.40 2.47 2.42 2.33 2.17 2.06 1.95 1.78 1.61 1.48 1.41 1.33 1.22 1.20 1.17 1.08 1.04 0.97 0.96 1.01 1.01 0.95
0.42 0.56 0.65 0.71 0.79 1.33 1.28 0.84 0.79 0.90 1.03 1.12 1.21 1.26 1.48 1.71 1.87 1.92 2.12 2.36 2.40 2.38 2.30 2.34 2.31 2.31 2.21 2.09 1.97 1.81 1.61 1.50 1.38 1.28 1.17 1.13 1.10 1.04 1.02 1.01 1.00 0.99 0.96 0.91
0.29 0.50 0.74 0.90 1.23 1.39 1.31 0.91 0.92 1.11 1.39 1.21 1.22 1.21 1.37 1.49 1.68 2.02 2.10 2.21 2.42 2.30 2.17 2.21 2.26 2.27 2.22 2.11 1.93 1.75 1.60 1.46 1.37 1.26 1.10 1.00 0.96 0.90 0.90 0.95 0.96 0.92 0.90 0.85
0.31 0.44 0.84 1.09 1.43 1.69 1.55 0.91 0.75 1.14 2.01 1.53 1.40 1.39 1.40 1.52 1.95 2.08 1.91 1.86 1.95 2.02 2.11 2.19 2.28 2.31 2.24 2.13 1.84 1.67 1.51 1.34 1.19 1.03 0.91 0.87 0.87 0.81 0.81 0.84 0.84 0.81 0.83 0.83
0.72 0.75 0.93 1.21 1.62 1.75 1.12 0.70 0.79 1.61 2.07 1.64 1.53 1.45 1.49 1.69 1.85 1.69 1.59 1.66 1.77 1.93 2.06 2.13 2.12 2.10 2.06 1.97 1.74 1.63 1.46 1.30 1.05 0.86 0.78 0.80 0.80 0.73 0.70 0.74 0.75 0.75 0.73 0.76
1.02 1.18 1.26 1.39 1.78 1.91 0.94 0.74 1.10 1.41 1.21 1.18 1.20 1.17 1.20 1.30 1.35 1.39 1.45 1.49 1.54 1.66 1.83 1.93 1.96 1.93 1.82 1.71 1.57 1.45 1.32 1.10 0.90 0.78 0.74 0.78 0.78 0.58 0.51 0.61 0.64 0.66 0.72 0.73
0.99 1.14 1.36 1.59 1.89 1.54 0.98 0.92 0.91 0.97 1.00 0.96 1.01 0.97 0.99 1.07 1.14 1.27 1.42 1.47 1.47 1.43 1.55 1.59 1.50 1.43 1.45 1.41 1.29 1.18 1.08 0.92 0.80 0.76 0.76 0.74 0.68 0.58 0.52 0.56 0.59 0.64 0.70 0.67
1.11 0.95 1.18 1.40 1.48 1.22 0.96 0.85 0.80 0.71 0.69 0.74 0.87 0.90 0.88 0.88 0.86 0.98 1.12 1.22 1.27 1.24 1.24 1.24 1.20 1.12 1.08 1.07 1.01 0.92 0.80 0.77 0.78 0.80 0.78 0.75 0.69 0.58 0.51 0.54 0.51 0.54 0.58 0.57
1.09 1.07 1.27 1.46 1.47 1.27 1.07 0.88 0.75 0.69 0.67 0.73 0.77 0.76 0.71 0.66 0.67 0.70 0.83 0.92 0.96 0.98 0.95 0.94 0.98 0.94 0.83 0.78 0.76 0.74 0.68 0.66 0.74 0.76 0.70 0.67 0.59 0.56 0.54 0.48 0.37 0.36 0.37 0.36
0.94 1.06 1.33 1.53 1.34 1.26 1.13 0.87 0.70 0.68 0.67 0.64 0.62 0.59 0.60 0.58 0.59 0.62 0.74 0.81 0.83 0.81 0.80 0.84 0.87 0.82 0.75 0.70 0.66 0.62 0.55 0.55 0.65 0.70 0.66 0.59 0.52 0.50 0.47 0.49 0.40 0.31 0.28 0.26